Weather History for Savannah Hunter, GA

Change the Weather History Date:

Tuesday, February 19, 2013

  Actual Average Record
Temperature  
Mean Temperature 54 °F -  
Max Temperature 67 °F 64 °F 82 °F (2014)
Min Temperature 41 °F 42 °F 30 °F (2005)
Degree Days  
Heating Degree Days 11    
Growing Degree Days 4 (Base 50)    
Moisture  
Dew Point 50 °F    
Average Humidity 87    
Maximum Humidity 100    
Minimum Humidity 50    
Precipitation  
Precipitation 0.04 in - - ()
Sea Level Pressure  
Sea Level Pressure 30.06 in    
Wind  
Wind Speed 5 mph (WSW)    
Max Wind Speed 14 mph    
Max Gust Speed 25 mph    
Visibility 7 miles    
Events Fog , Rain    
Averages and records for this station are not official NWS values.
T = Trace of Precipitation, MM = Missing Value Source: NWS Daily Summary

Daily Weather History Graph

Daily Weather History Graph

Search for Another Location

Airport:

Trip Planner

Search our weather history database for the weather conditions in past years. The results will help you decide how hot, cold, wet, or windy it might be!

Date:

Astronomy

Feb. 19, 2013 Rise Set
Actual Time 7:02 AM EST 6:14 PM EST
Civil Twilight 6:37 AM EST 6:39 PM EST
Nautical Twilight 6:09 AM EST 7:07 PM EST
Astronomical Twilight 5:40 AM EST 7:36 PM EST
Moon 12:55 PM EST (2/19) 2:22 AM EST (2/19)
Length of Visible Light 12h 01m
Length of Day
11h 12m
Waxing Gibbous, 67% of the Moon is Illuminated
Feb 19
Waxing Gibbous
Feb 25
Full
Mar 4
Last Quarter
Mar 11
New
Mar 19
First Quarter

Hourly Weather History & Observations

Time (EST) Temp. Windchill Dew Point Humidity Pressure Visibility Wind Dir Wind Speed Gust Speed Precip Events Conditions
12:58 AM 41.4 °F - 35.2 °F 79% 30.24 in 10.0 mi Calm Calm - N/A   Clear
1:58 AM 41.2 °F - 36.5 °F 83% 30.21 in 10.0 mi ESE 2.3 mph - N/A   Clear
2:58 AM 45.3 °F - 40.5 °F 83% 30.18 in 10.0 mi East 2.3 mph - N/A   Partly Cloudy
3:58 AM 42.8 °F - 38.8 °F 86% 30.15 in 10.0 mi Calm Calm - N/A   Clear
4:58 AM 42.1 °F - 39.7 °F 91% 30.14 in 10.0 mi ESE 2.3 mph - N/A   Clear
5:58 AM 41.7 °F 39.8 °F 39.9 °F 93% 30.13 in 10.0 mi SE 3.5 mph - N/A   Clear
6:58 AM 52.3 °F - 48.2 °F 86% 30.13 in 10.0 mi South 5.8 mph - N/A   Clear
7:25 AM 55.4 °F - 48.2 °F 77% 30.13 in 10.0 mi South 6.9 mph - N/A   Scattered Clouds
7:58 AM 56.7 °F - 48.6 °F 74% 30.14 in 10.0 mi South 8.1 mph - N/A   Mostly Cloudy
8:58 AM 61.7 °F - 46.8 °F 58% 30.13 in 10.0 mi South 8.1 mph 20.7 mph N/A   Overcast
9:58 AM 61.7 °F - 47.5 °F 60% 30.12 in 10.0 mi South 11.5 mph - N/A   Overcast
10:58 AM 64.8 °F - 48.0 °F 55% 30.11 in 10.0 mi SSW 8.1 mph 21.9 mph N/A   Mostly Cloudy
11:58 AM 67.6 °F - 48.2 °F 50% 30.08 in 10.0 mi SW 13.8 mph 25.3 mph N/A   Mostly Cloudy
12:19 PM 66.2 °F - 48.2 °F 52% 30.06 in 10.0 mi SSW 12.7 mph 24.2 mph N/A Rain Light Rain
12:58 PM 62.6 °F - 52.2 °F 69% 30.05 in 10.0 mi SSW 5.8 mph 20.7 mph 0.01 in Rain Light Rain
1:38 PM 60.8 °F - 55.4 °F 82% 30.02 in 10.0 mi Variable 4.6 mph - N/A   Mostly Cloudy
1:58 PM 61.3 °F - 54.5 °F 78% 30.01 in 10.0 mi South 5.8 mph - 0.02 in   Overcast
2:58 PM 62.1 °F - 55.2 °F 78% 29.99 in 10.0 mi South 8.1 mph - N/A   Overcast
3:58 PM 63.7 °F - 55.0 °F 73% 29.99 in 10.0 mi West 8.1 mph - N/A   Overcast
4:06 PM 64.4 °F - 55.4 °F 73% 29.99 in 10.0 mi West 9.2 mph - N/A   Light Drizzle
4:14 PM 62.6 °F - 55.4 °F 77% 29.99 in 10.0 mi WNW 10.4 mph - N/A   Overcast
4:48 PM 60.8 °F - 55.4 °F 82% 30.00 in 10.0 mi NW 10.4 mph - N/A Rain Light Rain
4:58 PM 60.1 °F - 56.1 °F 87% 30.02 in 10.0 mi NW 9.2 mph - 0.00 in Rain Light Rain
5:07 PM 59.0 °F - 55.4 °F 88% 30.01 in 10.0 mi WNW 9.2 mph - N/A   Overcast
5:23 PM 59.0 °F - 55.4 °F 88% 30.01 in 10.0 mi WNW 6.9 mph - N/A Rain Light Rain
5:29 PM 59.0 °F - 55.4 °F 88% 30.01 in 10.0 mi West 5.8 mph - N/A   Overcast
5:34 PM 59.0 °F - 55.4 °F 88% 30.01 in 10.0 mi WNW 5.8 mph - N/A   Overcast
5:39 PM 57.2 °F - 55.4 °F 94% 30.01 in 10.0 mi WNW 5.8 mph - N/A   Light Drizzle
5:53 PM 57.2 °F - 55.4 °F 94% 30.02 in 10.0 mi West 4.6 mph - N/A   Overcast
5:58 PM 57.7 °F - 55.9 °F 94% 30.03 in 10.0 mi West 4.6 mph - 0.01 in   Overcast
6:13 PM 57.2 °F - 55.4 °F 94% 30.02 in 10.0 mi West 4.6 mph - N/A   Overcast
6:18 PM 57.2 °F - 55.4 °F 94% 30.02 in 10.0 mi West 4.6 mph - N/A   Overcast
7:28 PM 57.2 °F - 53.6 °F 88% 30.04 in 10.0 mi WNW 6.9 mph - N/A   Mostly Cloudy
7:38 PM 55.4 °F - 53.6 °F 94% 30.04 in 10.0 mi West 5.8 mph - N/A   Scattered Clouds
7:58 PM 53.6 °F - 52.0 °F 94% 30.05 in 10.0 mi West 4.6 mph - N/A   Partly Cloudy
8:58 PM 52.2 °F - 50.9 °F 95% 30.06 in 10.0 mi WSW 4.6 mph - N/A   Clear
9:38 PM 50.0 °F - 48.2 °F 94% 30.06 in 2.5 mi WSW 5.8 mph - N/A   Clear
9:43 PM 50.0 °F - 48.2 °F 94% 30.06 in 2.0 mi WSW 5.8 mph - N/A   Clear
9:48 PM 50.0 °F - 48.2 °F 94% 30.06 in 1.2 mi WSW 4.6 mph - N/A   Clear
9:53 PM 48.2 °F - 48.2 °F 100% 30.06 in 1.0 mi WSW 5.8 mph - N/A   Clear
9:58 PM 50.0 °F - 48.2 °F 94% 30.07 in 1.2 mi WSW 5.8 mph - N/A   Clear
10:10 PM 48.2 °F - 48.2 °F 100% 30.06 in 6.0 mi West 4.6 mph - N/A   Clear
10:13 PM 48.2 °F - 48.2 °F 100% 30.06 in 0.8 mi WSW 4.6 mph - N/A   Clear
10:28 PM 48.2 °F - 48.2 °F 100% 30.06 in 1.0 mi WSW 4.6 mph - N/A   Clear
10:33 PM 48.2 °F - 48.2 °F 100% 30.06 in 1.5 mi WSW 4.6 mph - N/A   Clear
10:38 PM 48.2 °F - 48.2 °F 100% 30.06 in 2.5 mi WSW 3.5 mph - N/A   Clear
10:48 PM 48.2 °F - 48.2 °F 100% 30.06 in 1.5 mi WSW 3.5 mph - N/A   Clear
10:53 PM 48.2 °F - 46.4 °F 93% 30.06 in 0.8 mi WSW 3.5 mph - N/A   Clear
10:58 PM 46.4 °F 45.2 °F 46.4 °F 100% 30.07 in 0.5 mi WSW 3.5 mph - N/A Fog Fog
11:08 PM 46.4 °F 44.3 °F 46.4 °F 100% 30.06 in 0.8 mi WSW 4.6 mph - N/A   Mist
11:38 PM 46.4 °F 42.4 °F 46.4 °F 100% 30.07 in 0.5 mi West 8.1 mph - N/A Fog Fog
11:43 PM 46.4 °F 42.9 °F 46.4 °F 100% 30.07 in 0.5 mi West 6.9 mph - N/A Fog Fog
11:58 PM 46.4 °F 42.9 °F 46.4 °F 100% 30.08 in 0.5 mi West 6.9 mph - N/A Fog Fog